sat.trackr.live / text

‹ back to catalog

FLOCK 4H-25

NORAD 66728 · 2025-276BQ

PAYLOAD ACTIVE UNKNOWN

§ Identity

Operator
Country
US
Launch date
2025-11-28
Launch site
AFWTR
Launch vehicle
Mass (kg)
RCS (m²)

Purposes: earth_obs

External: N2YO · Heavens-Above · Gunter

§ Orbital elements

Epoch: 2026-05-25T03:09:04.673376Z

Period
94.71 min
Inclination
97.4198°
Eccentricity
0.0001667
Mean motion
15.20371053 rev/d
Perigee alt
503.6 km
Apogee alt
505.9 km
Semi-major
6,882.9 km
B*
2.4603e-4
RAAN
219.2567°
Arg perigee
79.0731°
Mean anomaly
281.0692°
Rev number
2,621

§ Raw data

FLOCK 4H-251 66728U 25276BQ  26145.13130409  .00005288  00000+0  24603-3 0  99902 66728  97.4198 219.2567 0001667  79.0731 281.0692 15.20371053 26214

JSON: /api/v1/satellites/66728 · /tle

For live sub-satellite position, see the globe view (requires WebGL).

§ Visibility from observer

Set your observer location to see the next 7 days of passes ≥ 10°. The values pass through the URL so the page stays shareable.

No JS? Fill the form by hand. The geolocation button needs JavaScript.